Volver al catálogo

DELTA 1 DEB

ActivoSSO
NORAD 7153·DEBRIS·🇺🇸 United States

Lanzado Nov 6, 1973 desde Vandenberg Space Force Base

Loading…

Próximos Pases (próximas 24 horas)

TLE

ActualizadoSource: Space-Track

Época: Sep 14, 2026, 09:01 UTC

1 07153U 73086DT  26257.37594733  .00000027  00000-0  56404-3 0  9994
2 07153 102.1646 223.1163 0035797 340.8944 174.4058 12.36038000381755

Sigue DELTA 1 DEB en tiempo real con AllMySat

Download on the App Store